Time,TemperatureF,DewpointF,PressureIn,WindDirection,WindDirectionDegrees,WindSpeedMPH,WindSpeedGustMPH,Humidity,HourlyPrecipIn,Conditions,Clouds,dailyrainin,SoftwareType,DateUTC
2013-10-03 00:03:00,-999.0,-99.9,30.01,North,-999,-999.0,-999.0,-999,-99.99,,,0.00,weatherlink.com 1.10,2013-10-03 04:03:00,
2013-10-03 00:18:00,-999.0,-99.9,30.00,North,-999,-999.0,-999.0,-999,-99.99,,,0.00,weatherlink.com 1.10,2013-10-03 04:18:00,
2013-10-03 00:33:00,-999.0,-99.9,29.99,North,-999,-999.0,-999.0,-999,-99.99,,,0.00,weatherlink.com 1.10,2013-10-03 04:33:00,
2013-10-03 00:49:00,-999.0,-99.9,29.99,North,-999,-999.0,-999.0,-999,-99.99,,,0.00,weatherlink.com 1.10,2013-10-03 04:49:00,
2013-10-03 01:03:00,-999.0,-99.9,29.98,North,-999,-999.0,-999.0,-999,-99.99,,,0.00,weatherlink.com 1.10,2013-10-03 05:03:00,
2013-10-03 01:18:00,-999.0,-99.9,29.99,North,-999,-999.0,-999.0,-999,-99.99,,,0.00,weatherlink.com 1.10,2013-10-03 05:18:00,
2013-10-03 01:33:00,-999.0,-99.9,29.99,North,-999,-999.0,-999.0,-999,-99.99,,,0.00,weatherlink.com 1.10,2013-10-03 05:33:00,
2013-10-03 01:49:00,-999.0,-99.9,29.98,North,-999,-999.0,-999.0,-999,-99.99,,,0.00,weatherlink.com 1.10,2013-10-03 05:49:00,
2013-10-03 02:03:00,-999.0,-99.9,29.97,North,-999,-999.0,-999.0,-999,-99.99,,,0.00,weatherlink.com 1.10,2013-10-03 06:03:00,
2013-10-03 02:19:00,-999.0,-99.9,29.96,North,-999,-999.0,-999.0,-999,-99.99,,,0.00,weatherlink.com 1.10,2013-10-03 06:19:00,
2013-10-03 02:33:00,-999.0,-99.9,29.95,North,-999,-999.0,-999.0,-999,-99.99,,,0.00,weatherlink.com 1.10,2013-10-03 06:33:00,
2013-10-03 02:48:00,-999.0,-99.9,29.94,North,-999,-999.0,-999.0,-999,-99.99,,,0.00,weatherlink.com 1.10,2013-10-03 06:48:00,
2013-10-03 03:03:00,-999.0,-99.9,29.93,North,-999,-999.0,-999.0,-999,-99.99,,,0.00,weatherlink.com 1.10,2013-10-03 07:03:00,
2013-10-03 03:18:00,-999.0,-99.9,29.93,North,-999,-999.0,-999.0,-999,-99.99,,,0.00,weatherlink.com 1.10,2013-10-03 07:18:00,
2013-10-03 03:33:00,-999.0,-99.9,29.91,North,-999,-999.0,-999.0,-999,-99.99,,,0.00,weatherlink.com 1.10,2013-10-03 07:33:00,
2013-10-03 03:48:00,-999.0,-99.9,29.91,North,-999,-999.0,-999.0,-999,-99.99,,,0.00,weatherlink.com 1.10,2013-10-03 07:48:00,
2013-10-03 04:03:00,-999.0,-99.9,29.90,North,-999,-999.0,-999.0,-999,-99.99,,,0.00,weatherlink.com 1.10,2013-10-03 08:03:00,
2013-10-03 04:18:00,-999.0,-99.9,29.90,North,-999,-999.0,-999.0,-999,-99.99,,,0.00,weatherlink.com 1.10,2013-10-03 08:18:00,
2013-10-03 04:33:00,-999.0,-99.9,29.90,North,-999,-999.0,-999.0,-999,-99.99,,,0.00,weatherlink.com 1.10,2013-10-03 08:33:00,
2013-10-03 04:48:00,-999.0,-99.9,29.90,North,-999,-999.0,-999.0,-999,-99.99,,,0.00,weatherlink.com 1.10,2013-10-03 08:48:00,
2013-10-03 05:03:00,-999.0,-99.9,29.90,North,-999,-999.0,-999.0,-999,-99.99,,,0.00,weatherlink.com 1.10,2013-10-03 09:03:00,
2013-10-03 05:18:00,-999.0,-99.9,29.90,North,-999,-999.0,-999.0,-999,-99.99,,,0.00,weatherlink.com 1.10,2013-10-03 09:18:00,
2013-10-03 05:33:00,-999.0,-99.9,29.90,North,-999,-999.0,-999.0,-999,-99.99,,,0.00,weatherlink.com 1.10,2013-10-03 09:33:00,
2013-10-03 05:48:00,-999.0,-99.9,29.90,North,-999,-999.0,-999.0,-999,-99.99,,,0.00,weatherlink.com 1.10,2013-10-03 09:48:00,
2013-10-03 06:03:00,-999.0,-99.9,29.91,North,-999,-999.0,-999.0,-999,-99.99,,,0.00,weatherlink.com 1.10,2013-10-03 10:03:00,
2013-10-03 06:18:00,-999.0,-99.9,29.91,North,-999,-999.0,-999.0,-999,-99.99,,,0.00,weatherlink.com 1.10,2013-10-03 10:18:00,
2013-10-03 06:33:00,-999.0,-99.9,29.91,North,-999,-999.0,-999.0,-999,-99.99,,,0.00,weatherlink.com 1.10,2013-10-03 10:33:00,
2013-10-03 06:48:00,-999.0,-99.9,29.91,North,-999,-999.0,-999.0,-999,-99.99,,,0.00,weatherlink.com 1.10,2013-10-03 10:48:00,
2013-10-03 07:03:00,-999.0,-99.9,29.92,North,-999,-999.0,-999.0,-999,-99.99,,,0.00,weatherlink.com 1.10,2013-10-03 11:03:00,
2013-10-03 07:18:00,-999.0,-99.9,29.92,North,-999,-999.0,-999.0,-999,-99.99,,,0.00,weatherlink.com 1.10,2013-10-03 11:18:00,
2013-10-03 07:33:00,-999.0,-99.9,29.93,North,-999,-999.0,-999.0,-999,-99.99,,,0.00,weatherlink.com 1.10,2013-10-03 11:33:00,
2013-10-03 07:48:00,-999.0,-99.9,29.93,North,-999,-999.0,-999.0,-999,-99.99,,,0.00,weatherlink.com 1.10,2013-10-03 11:48:00,
2013-10-03 08:03:00,-999.0,-99.9,29.94,North,-999,-999.0,-999.0,-999,-99.99,,,0.00,weatherlink.com 1.10,2013-10-03 12:03:00,
2013-10-03 08:18:00,80.9,76.0,29.94,NE,42,5.0,-999.0,86,-99.99,,,0.00,weatherlink.com 1.10,2013-10-03 12:18:00,
2013-10-03 08:33:00,81.1,76.0,29.95,ENE,76,4.0,-999.0,85,-99.99,,,0.00,weatherlink.com 1.10,2013-10-03 12:33:00,
2013-10-03 08:48:00,81.4,77.0,29.96,ENE,59,4.0,-999.0,85,-99.99,,,0.00,weatherlink.com 1.10,2013-10-03 12:48:00,
2013-10-03 09:03:00,82.0,76.0,29.96,ENE,62,2.0,-999.0,83,-99.99,,,0.00,weatherlink.com 1.10,2013-10-03 13:03:00,
2013-10-03 09:18:00,83.0,77.0,29.96,ENE,68,1.0,-999.0,81,-99.99,,,0.00,weatherlink.com 1.10,2013-10-03 13:18:00,
2013-10-03 09:33:00,83.2,76.0,29.97,NE,54,2.0,-999.0,79,-99.99,,,0.00,weatherlink.com 1.10,2013-10-03 13:33:00,
2013-10-03 09:48:00,82.6,76.0,29.98,ENE,59,1.0,-999.0,79,-99.99,,,0.00,weatherlink.com 1.10,2013-10-03 13:48:00,
2013-10-03 10:03:00,82.6,77.0,29.98,SSE,160,0.0,-999.0,82,-99.99,,,0.00,weatherlink.com 1.10,2013-10-03 14:03:00,
2013-10-03 10:18:00,81.2,76.0,29.99,East,90,4.0,-999.0,85,-99.99,,,0.00,weatherlink.com 1.10,2013-10-03 14:18:00,
2013-10-03 10:33:00,81.8,77.0,29.99,SSE,163,1.0,-999.0,84,-99.99,,,0.00,weatherlink.com 1.10,2013-10-03 14:33:00,
2013-10-03 10:48:00,82.6,77.0,29.99,South,176,0.0,-999.0,83,-99.99,,,0.00,weatherlink.com 1.10,2013-10-03 14:48:00,
2013-10-03 11:03:00,83.8,77.0,30.00,SE,130,3.0,-999.0,81,-99.99,,,0.00,weatherlink.com 1.10,2013-10-03 15:03:00,
2013-10-03 11:18:00,82.8,76.0,30.00,NE,55,1.0,-999.0,81,-99.99,,,0.01,weatherlink.com 1.10,2013-10-03 15:18:00,
2013-10-03 11:33:00,79.8,76.0,30.00,ENE,57,2.0,-999.0,87,-99.99,,,0.04,weatherlink.com 1.10,2013-10-03 15:33:00,
2013-10-03 11:48:00,80.9,77.0,30.00,NE,53,1.0,-999.0,88,-99.99,,,0.05,weatherlink.com 1.10,2013-10-03 15:48:00,
2013-10-03 12:03:00,81.1,77.0,30.00,ENE,60,0.0,-999.0,87,-99.99,,,0.05,weatherlink.com 1.10,2013-10-03 16:03:00,
2013-10-03 12:18:00,81.8,77.0,30.00,ENE,67,1.0,-999.0,85,-99.99,,,0.05,weatherlink.com 1.10,2013-10-03 16:18:00,
2013-10-03 12:33:00,82.6,77.0,30.00,ENE,74,2.0,-999.0,82,-99.99,,,0.05,weatherlink.com 1.10,2013-10-03 16:33:00,
2013-10-03 12:48:00,83.0,76.0,29.99,SSE,165,0.0,-999.0,79,-99.99,,,0.05,weatherlink.com 1.10,2013-10-03 16:48:00,
2013-10-03 13:03:00,83.6,76.0,29.99,ESE,123,0.0,-999.0,78,-99.99,,,0.05,weatherlink.com 1.10,2013-10-03 17:03:00,
2013-10-03 13:18:00,83.6,75.0,29.99,East,93,1.0,-999.0,76,-99.99,,,0.05,weatherlink.com 1.10,2013-10-03 17:18:00,
2013-10-03 13:33:00,84.1,76.0,29.98,South,170,0.0,-999.0,76,-99.99,,,0.05,weatherlink.com 1.10,2013-10-03 17:33:00,
2013-10-03 13:48:00,84.5,75.0,29.97,East,80,0.0,-999.0,73,-99.99,,,0.05,weatherlink.com 1.10,2013-10-03 17:48:00,
2013-10-03 14:03:00,84.5,75.0,29.96,ENE,66,0.0,-999.0,74,-99.99,,,0.05,weatherlink.com 1.10,2013-10-03 18:03:00,
2013-10-03 14:18:00,84.9,76.0,29.96,ENE,67,4.0,-999.0,74,-99.99,,,0.05,weatherlink.com 1.10,2013-10-03 18:18:00,
2013-10-03 14:33:00,84.9,75.0,29.96,ESE,111,5.0,-999.0,73,-99.99,,,0.05,weatherlink.com 1.10,2013-10-03 18:33:00,
2013-10-03 14:48:00,85.3,76.0,29.96,South,183,0.0,-999.0,73,-99.99,,,0.05,weatherlink.com 1.10,2013-10-03 18:48:00,
2013-10-03 15:03:00,85.1,76.0,29.96,SE,132,4.0,-999.0,73,-99.99,,,0.05,weatherlink.com 1.10,2013-10-03 19:03:00,
2013-10-03 15:18:00,84.7,76.0,29.96,SSE,158,0.0,-999.0,74,-99.99,,,0.05,weatherlink.com 1.10,2013-10-03 19:18:00,
2013-10-03 15:33:00,85.5,76.0,29.96,ENE,67,3.0,-999.0,73,-99.99,,,0.05,weatherlink.com 1.10,2013-10-03 19:33:00,
2013-10-03 15:48:00,84.5,75.0,29.95,NE,43,1.0,-999.0,73,-99.99,,,0.05,weatherlink.com 1.10,2013-10-03 19:48:00,
2013-10-03 16:03:00,84.1,75.0,29.94,ENE,78,0.0,-999.0,73,-99.99,,,0.05,weatherlink.com 1.10,2013-10-03 20:03:00,
2013-10-03 16:18:00,83.8,75.0,29.94,NE,52,3.0,-999.0,74,-99.99,,,0.05,weatherlink.com 1.10,2013-10-03 20:18:00,
2013-10-03 16:33:00,83.8,75.0,29.94,ENE,61,4.0,-999.0,74,-99.99,,,0.05,weatherlink.com 1.10,2013-10-03 20:33:00,
2013-10-03 16:48:00,83.8,75.0,29.94,ENE,75,0.0,-999.0,75,-99.99,,,0.05,weatherlink.com 1.10,2013-10-03 20:48:00,
2013-10-03 17:03:00,83.6,75.0,29.94,NE,56,3.0,-999.0,74,-99.99,,,0.05,weatherlink.com 1.10,2013-10-03 21:03:00,
2013-10-03 17:18:00,83.4,74.0,29.94,ENE,65,0.0,-999.0,74,-99.99,,,0.05,weatherlink.com 1.10,2013-10-03 21:18:00,
2013-10-03 17:33:00,83.4,74.0,29.94,NE,41,2.0,-999.0,74,-99.99,,,0.05,weatherlink.com 1.10,2013-10-03 21:33:00,
2013-10-03 17:48:00,83.2,74.0,29.94,ENE,64,0.0,-999.0,74,-99.99,,,0.05,weatherlink.com 1.10,2013-10-03 21:48:00,
2013-10-03 18:03:00,83.2,74.0,29.94,ENE,77,2.0,-999.0,73,-99.99,,,0.05,weatherlink.com 1.10,2013-10-03 22:03:00,
2013-10-03 18:18:00,-999.0,-99.9,29.94,North,-999,-999.0,-999.0,-999,-99.99,,,0.05,weatherlink.com 1.10,2013-10-03 22:18:00,
2013-10-03 18:33:00,-999.0,-99.9,29.94,North,-999,-999.0,-999.0,-999,-99.99,,,0.05,weatherlink.com 1.10,2013-10-03 22:33:00,
2013-10-03 18:48:00,-999.0,-99.9,29.95,North,-999,-999.0,-999.0,-999,-99.99,,,0.05,weatherlink.com 1.10,2013-10-03 22:48:00,
2013-10-03 19:03:00,-999.0,-99.9,29.95,North,-999,-999.0,-999.0,-999,-99.99,,,0.05,weatherlink.com 1.10,2013-10-03 23:03:00,
2013-10-03 19:18:00,-999.0,-99.9,29.95,North,-999,-999.0,-999.0,-999,-99.99,,,0.05,weatherlink.com 1.10,2013-10-03 23:18:00,
2013-10-03 19:33:00,-999.0,-99.9,29.95,North,-999,-999.0,-999.0,-999,-99.99,,,0.05,weatherlink.com 1.10,2013-10-03 23:33:00,
2013-10-03 19:48:00,-999.0,-99.9,29.95,North,-999,-999.0,-999.0,-999,-99.99,,,0.05,weatherlink.com 1.10,2013-10-03 23:48:00,
2013-10-03 20:03:00,-999.0,-99.9,29.96,North,-999,-999.0,-999.0,-999,-99.99,,,0.05,weatherlink.com 1.10,2013-10-04 00:03:00,
2013-10-03 20:19:00,-999.0,-99.9,29.96,North,-999,-999.0,-999.0,-999,-99.99,,,0.05,weatherlink.com 1.10,2013-10-04 00:19:00,
2013-10-03 20:34:00,-999.0,-99.9,29.96,North,-999,-999.0,-999.0,-999,-99.99,,,0.05,weatherlink.com 1.10,2013-10-04 00:34:00,
2013-10-03 20:49:00,-999.0,-99.9,29.97,North,-999,-999.0,-999.0,-999,-99.99,,,0.05,weatherlink.com 1.10,2013-10-04 00:49:00,
2013-10-03 21:04:00,-999.0,-99.9,29.97,North,-999,-999.0,-999.0,-999,-99.99,,,0.05,weatherlink.com 1.10,2013-10-04 01:04:00,
2013-10-03 21:19:00,-999.0,-99.9,29.98,North,-999,-999.0,-999.0,-999,-99.99,,,0.05,weatherlink.com 1.10,2013-10-04 01:19:00,
2013-10-03 21:34:00,-999.0,-99.9,29.98,North,-999,-999.0,-999.0,-999,-99.99,,,0.05,weatherlink.com 1.10,2013-10-04 01:34:00,
2013-10-03 21:49:00,-999.0,-99.9,29.98,North,-999,-999.0,-999.0,-999,-99.99,,,0.05,weatherlink.com 1.10,2013-10-04 01:49:00,
2013-10-03 22:04:00,-999.0,-99.9,29.99,North,-999,-999.0,-999.0,-999,-99.99,,,0.05,weatherlink.com 1.10,2013-10-04 02:04:00,
2013-10-03 22:19:00,-999.0,-99.9,29.99,North,-999,-999.0,-999.0,-999,-99.99,,,0.05,weatherlink.com 1.10,2013-10-04 02:19:00,
2013-10-03 22:34:00,-999.0,-99.9,29.99,North,-999,-999.0,-999.0,-999,-99.99,,,0.05,weatherlink.com 1.10,2013-10-04 02:34:00,
2013-10-03 22:49:00,-999.0,-99.9,29.99,North,-999,-999.0,-999.0,-999,-99.99,,,0.05,weatherlink.com 1.10,2013-10-04 02:49:00,
2013-10-03 23:04:00,-999.0,-99.9,29.99,North,-999,-999.0,-999.0,-999,-99.99,,,0.05,weatherlink.com 1.10,2013-10-04 03:04:00,
2013-10-03 23:19:00,-999.0,-99.9,29.99,North,-999,-999.0,-999.0,-999,-99.99,,,0.05,weatherlink.com 1.10,2013-10-04 03:19:00,
2013-10-03 23:34:00,-999.0,-99.9,29.99,North,-999,-999.0,-999.0,-999,-99.99,,,0.05,weatherlink.com 1.10,2013-10-04 03:34:00,
2013-10-03 23:49:00,-999.0,-99.9,29.99,North,-999,-999.0,-999.0,-999,-99.99,,,0.00,weatherlink.com 1.10,2013-10-04 03:49:00,